When you browse on this site, cookies collect data to enhance your experience and personalize the content and advertising you see.
Visit our Privacy Policy to learn more. By continuing to use the site, you agree to this use of cookies and data.
  • In Österreich
  • Länderverzeichnis
  • Für 7 Tage
  • Wassertemperatur
  • Satellitenkarten
  • Wetterkarte
  • News
  • Widgets
  • user-avatar
    Anmelden

    Stündliche Wetter Wlosciborz

    Heute, 19 Dezember, Mittwoch

    Zeit Temperatur Niederschläge Wind Luftdruck Luftfeuchtigkeit
    00:00 -1°C° 0 mm 4 m/S 766 mmHg 95%
    01:00 -1°C° 0 mm 4 m/S 765 mmHg 96%
    02:00 -1°C° 0 mm 5 m/S 765 mmHg 95%
    03:00 -1°C° 0 mm 5 m/S 765 mmHg 95%
    04:00 -1°C° 0 mm 5 m/S 764 mmHg 95%
    05:00 -2°C° 0 mm 6 m/S 764 mmHg 93%
    06:00 -2°C° 0 mm 6 m/S 764 mmHg 91%
    07:00 -3°C° 0 mm 7 m/S 764 mmHg 90%
    08:00 -2°C° 0 mm 7 m/S 763 mmHg 85%
    09:00 -2°C° 0 mm 7 m/S 763 mmHg 80%
    10:00 -2°C° 0 mm 8 m/S 763 mmHg 76%
    11:00 -2°C° 0 mm 8 m/S 762 mmHg 75%
    12:00 -1°C° 0 mm 8 m/S 762 mmHg 74%
    13:00 -1°C° 0 mm 8 m/S 761 mmHg 73%
    14:00 -2°C° 0 mm 7 m/S 761 mmHg 75%
    15:00 -2°C° 0 mm 7 m/S 761 mmHg 78%
    16:00 -2°C° 0 mm 7 m/S 760 mmHg 80%
    17:00 -2°C° 0 mm 7 m/S 760 mmHg 80%
    18:00 -2°C° 0 mm 6 m/S 760 mmHg 81%
    19:00 -2°C° 0 mm 6 m/S 760 mmHg 81%
    20:00 -2°C° 0 mm 6 m/S 760 mmHg 81%
    21:00 -1°C° 0 mm 5 m/S 760 mmHg 82%
    22:00 -1°C° 0 mm 5 m/S 759 mmHg 82%
    23:00 -1°C° 0.1 mm 5 m/S 759 mmHg 83%

    Morgen, 20 Dezember, Donnerstag

    Zeit Temperatur Niederschläge Wind Luftdruck Luftfeuchtigkeit
    00:00 -1°C° 0.1 mm 5 m/S 759 mmHg 84%
    01:00 -1°C° 0.1 mm 5 m/S 759 mmHg 85%
    02:00 -1°C° 0.2 mm 5 m/S 759 mmHg 87%
    03:00 -1°C° 0.2 mm 5 m/S 759 mmHg 90%
    04:00 -1°C° 0.2 mm 5 m/S 759 mmHg 92%
    05:00 -1°C° 0.4 mm 5 m/S 759 mmHg 92%
    06:00 -1°C° 0.4 mm 4 m/S 759 mmHg 93%
    07:00 -1°C° 0.4 mm 4 m/S 759 mmHg 93%
    08:00 -1°C° 0.2 mm 4 m/S 759 mmHg 93%
    09:00 -1°C° 0.2 mm 4 m/S 759 mmHg 93%
    10:00 -1°C° 0.2 mm 4 m/S 759 mmHg 93%
    11:00 -1°C° 0.1 mm 4 m/S 759 mmHg 93%
    12:00 0°C° 0.1 mm 4 m/S 759 mmHg 92%
    13:00 0°C° 0.1 mm 4 m/S 758 mmHg 92%
    14:00 +1°C° 0.1 mm 3 m/S 758 mmHg 93%
    15:00 +1°C° 0.1 mm 3 m/S 758 mmHg 94%
    16:00 0°C° 0.1 mm 3 m/S 758 mmHg 95%
    17:00 0°C° 0.3 mm 4 m/S 758 mmHg 95%
    18:00 0°C° 0.3 mm 4 m/S 758 mmHg 95%
    19:00 0°C° 0.3 mm 4 m/S 758 mmHg 95%
    20:00 0°C° 0.2 mm 4 m/S 758 mmHg 95%
    21:00 0°C° 0.2 mm 4 m/S 758 mmHg 95%
    22:00 0°C° 0.2 mm 4 m/S 757 mmHg 95%
    23:00 0°C° 0 mm 4 m/S 757 mmHg 95%

    übermorgen, 21 Dezember, Freitag

    Zeit Temperatur Niederschläge Wind Luftdruck Luftfeuchtigkeit
    00:00 0°C° 0 mm 4 m/S 757 mmHg 95%
    01:00 0°C° 0 mm 4 m/S 757 mmHg 95%
    02:00 0°C° 0 mm 4 m/S 756 mmHg 95%
    03:00 0°C° 0 mm 5 m/S 756 mmHg 95%
    04:00 0°C° 0 mm 5 m/S 756 mmHg 95%
    05:00 0°C° 0 mm 5 m/S 755 mmHg 95%
    06:00 0°C° 0 mm 5 m/S 755 mmHg 95%
    07:00 0°C° 0 mm 5 m/S 755 mmHg 95%
    08:00 0°C° 0 mm 5 m/S 754 mmHg 95%
    09:00 +1°C° 0 mm 5 m/S 754 mmHg 95%
    10:00 +1°C° 0 mm 5 m/S 754 mmHg 95%
    11:00 +1°C° 0 mm 5 m/S 753 mmHg 94%
    12:00 +1°C° 0 mm 5 m/S 753 mmHg 93%
    13:00 +1°C° 0 mm 5 m/S 752 mmHg 93%
    14:00 +1°C° 0.1 mm 5 m/S 752 mmHg 93%
    15:00 +1°C° 0.1 mm 5 m/S 751 mmHg 93%
    16:00 +1°C° 0.1 mm 6 m/S 751 mmHg 94%
    17:00 +1°C° 0.2 mm 6 m/S 750 mmHg 94%
    18:00 +1°C° 0.2 mm 6 m/S 749 mmHg 93%
    19:00 +1°C° 0.2 mm 6 m/S 748 mmHg 93%
    20:00 +1°C° 0.7 mm 6 m/S 747 mmHg 93%
    21:00 +1°C° 0.7 mm 6 m/S 746 mmHg 92%
    22:00 +1°C° 0.7 mm 6 m/S 745 mmHg 92%
    23:00 +2°C° 1.1 mm 6 m/S 745 mmHg 92%

    22 Dezember, Samstag

    Zeit Temperatur Niederschläge Wind Luftdruck Luftfeuchtigkeit
    00:00 +3°C° 1.1 mm 6 m/S 745 mmHg 92%
    01:00 +3°C° 1.1 mm 6 m/S 745 mmHg 91%
    02:00 +4°C° 0.5 mm 6 m/S 745 mmHg 89%
    03:00 +4°C° 0.5 mm 6 m/S 745 mmHg 88%
    04:00 +4°C° 0.5 mm 7 m/S 745 mmHg 86%
    05:00 +4°C° 0.5 mm 7 m/S 745 mmHg 85%
    06:00 +4°C° 0.5 mm 8 m/S 745 mmHg 85%
    07:00 +4°C° 0.5 mm 8 m/S 745 mmHg 85%
    08:00 +4°C° 0.3 mm 8 m/S 745 mmHg 85%
    09:00 +4°C° 0.3 mm 8 m/S 745 mmHg 85%
    10:00 +4°C° 0.3 mm 8 m/S 745 mmHg 84%
    11:00 +4°C° 0.2 mm 8 m/S 745 mmHg 85%
    12:00 +5°C° 0.2 mm 8 m/S 746 mmHg 86%
    13:00 +5°C° 0.2 mm 8 m/S 746 mmHg 86%
    14:00 +4°C° 0.1 mm 8 m/S 746 mmHg 86%
    15:00 +3°C° 0.1 mm 9 m/S 747 mmHg 85%
    16:00 +3°C° 0.1 mm 9 m/S 747 mmHg 85%
    17:00 +3°C° 0.1 mm 9 m/S 748 mmHg 85%
    18:00 +3°C° 0.1 mm 9 m/S 748 mmHg 84%
    19:00 +2°C° 0.1 mm 8 m/S 749 mmHg 84%
    20:00 +3°C° 0.1 mm 7 m/S 749 mmHg 86%
    21:00 +3°C° 0.1 mm 6 m/S 750 mmHg 88%
    22:00 +3°C° 0.1 mm 5 m/S 750 mmHg 90%
    23:00 +4°C° 0.2 mm 4 m/S 751 mmHg 90%

    23 Dezember, Sonntag

    Zeit Temperatur Niederschläge Wind Luftdruck Luftfeuchtigkeit
    00:00 +3°C° 0.2 mm 3 m/S 751 mmHg 91%
    01:00 +4°C° 0.2 mm 2 m/S 752 mmHg 92%
    02:00 +4°C° 0.2 mm 2 m/S 752 mmHg 92%
    03:00 +4°C° 0.2 mm 2 m/S 753 mmHg 93%
    04:00 +5°C° 0.2 mm 1 m/S 753 mmHg 93%
    05:00 +5°C° 0.2 mm 1 m/S 753 mmHg 93%
    06:00 +4°C° 0.2 mm 2 m/S 754 mmHg 93%
    07:00 +3°C° 0.2 mm 2 m/S 754 mmHg 93%
    08:00 +4°C° 0.5 mm 2 m/S 755 mmHg 93%
    09:00 +4°C° 0.5 mm 2 m/S 755 mmHg 93%
    10:00 +4°C° 0.5 mm 2 m/S 755 mmHg 92%
    11:00 +4°C° 0.3 mm 2 m/S 756 mmHg 91%
    12:00 +4°C° 0.3 mm 2 m/S 756 mmHg 90%
    13:00 +4°C° 0.3 mm 2 m/S 756 mmHg 90%
    14:00 +4°C° 0.1 mm 2 m/S 756 mmHg 91%
    15:00 +3°C° 0.1 mm 2 m/S 757 mmHg 92%
    16:00 +3°C° 0.1 mm 2 m/S 757 mmHg 93%
    17:00 +3°C° 0 mm 2 m/S 757 mmHg 93%
    18:00 +3°C° 0 mm 2 m/S 757 mmHg 94%
    19:00 +3°C° 0 mm 1 m/S 757 mmHg 94%
    20:00 +3°C° 0 mm 1 m/S 758 mmHg 94%
    21:00 +3°C° 0 mm 1 m/S 758 mmHg 94%
    22:00 +2°C° 0 mm 1 m/S 759 mmHg 93%
    23:00 +2°C° 0 mm 1 m/S 759 mmHg 93%

    24 Dezember, Montag

    Zeit Temperatur Niederschläge Wind Luftdruck Luftfeuchtigkeit
    00:00 +2°C° 0 mm 1 m/S 760 mmHg 93%
    01:00 +2°C° 0 mm 1 m/S 760 mmHg 93%
    02:00 +1°C° 0 mm 2 m/S 760 mmHg 93%
    03:00 +1°C° 0 mm 2 m/S 761 mmHg 94%
    04:00 +1°C° 0 mm 2 m/S 761 mmHg 94%
    05:00 +1°C° 0.1 mm 3 m/S 761 mmHg 95%
    06:00 +1°C° 0.1 mm 3 m/S 761 mmHg 95%
    07:00 +1°C° 0.1 mm 3 m/S 762 mmHg 95%
    08:00 +1°C° 0.1 mm 4 m/S 762 mmHg 94%
    09:00 +1°C° 0.1 mm 4 m/S 762 mmHg 93%
    10:00 +3°C° 0.1 mm 4 m/S 762 mmHg 93%
    11:00 +3°C° 0 mm 4 m/S 762 mmHg 90%
    12:00 +3°C° 0 mm 4 m/S 762 mmHg 88%
    13:00 +3°C° 0 mm 4 m/S 763 mmHg 86%
    14:00 +3°C° 0.1 mm 4 m/S 763 mmHg 88%
    15:00 +3°C° 0.1 mm 4 m/S 763 mmHg 90%
    16:00 +1°C° 0.1 mm 4 m/S 763 mmHg 92%
    17:00 +1°C° 0 mm 5 m/S 763 mmHg 91%
    18:00 +1°C° 0 mm 5 m/S 763 mmHg 91%
    19:00 +1°C° 0 mm 5 m/S 763 mmHg 91%
    20:00 +1°C° 0 mm 5 m/S 763 mmHg 91%
    21:00 0°C° 0 mm 5 m/S 763 mmHg 91%
    22:00 0°C° 0 mm 4 m/S 763 mmHg 91%
    23:00 0°C° 0 mm 5 m/S 763 mmHg 90%
    Mehr zeigen